Location: Waco, TX
(31.5480°N, 97.1670°W)
Time: 01:38:04
(UTC-05:00)

ISS - Pass Details

Date: 13 October 2018
Orbit: 403 x 408 km, 51.6° (Epoch: 21 October)

Event Time Altitude Azimuth Distance (km) Brightness Sun altitude
Rises 10:58:14 0° 198° (SSW) 2,306 0.3 38.8°
Reaches altitude 10° 11:00:33 10° 183° (S) 1,452 -0.4 39.1°
Maximum altitude 11:03:13 23° 128° (SE) 903 -0.2 39.5°
Drops below altitude 10° 11:05:53 10° 73° (ENE) 1,462 -0.6 39.9°
Sets 11:08:14 0° 59° (ENE) 2,327 0.1 40.3°
